NIMBUS 2 DEB, 59969

Orbit data source: Space-Track

NIMBUS 2 DEB, 59969 is space debris in SSO originally from a launch on Sun, 15 May 1966 UTC launched from the Air Force Western Test Range (AFWTR). Debris objects in space refer to the collection of defunct objects orbiting the Earth. Examples of debris include non-operational satellites, rocket bodies, and fragments generated from explosions, collisions, or faulty payload assembly.

Loading next visibility...
Identifier
59969, 1966-040BY
Orbit
SSO
Country
Flag of USUS
Related business
Manufacturer
Unknown
Mission
Spacecraft
Bus & Motor
Unknown
Mass
Unknown
Launch date (UTC)
1966-05-15 (60 years ago)
Launch vehicle
Unknown
Launch site
Air Force Western Test Range (AFWTR)
Object type
Payload
Rocket body
Debris
Shape & HBR
Unknown shape, 0.1 m
Radar Cross Section
Small (<0.1 m²)

Expand to show TLE details & history
Last TLE update: 10 hours ago

TLE from 10 hours ago
0 NIMBUS 2 DEB
1 59969U 66040BY  26121.41284638  .00003027  00000-0  50528-2 0  9996
2 59969 100.1530 290.0208 0043480 292.4089  67.2439 13.46761278356352
Epoch: 2026-05-01T09:54Z
TLE epoch observation values (Epoch: 2026-05-01T09:54:29.927Z)
Latitude
0.00001°
Longitude
-77.94936°
Altitude
1,074.531 km
Speed
7.321 km/s
True Right ascension
19h 20m 04s
True Declination
0° 00' 00"
Sunlit
Object was in daylight at epoch
Visualization orbit readout
Latitude
Unknown
Longitude
Unknown
Altitude
Unknown
Speed
Unknown
Apparent Right ascension
Unknown
Apparent Declination
Unknown
Sunlit
N/A
Visualization observer readout
Local Sidereal Time
03:50:14
Azimuth
Unknown
Elevation
Unknown
Doppler factor
Unknown
Orbital elements
Apogee altitude
1,113.962 km
Perigee altitude
1,049.093 km
Semi-major axis
7,459.665 km
Eccentricity
0.00435
Inclination
100.153°
RAAN
290.0208°
Arg. of periapsis
292.4089°
True anomaly
67.70432°
Mean anomaly
67.2439°
Eccentric anomaly
67.47402°
Mean motion
3.36871 °/min
Orbital period
106.87 mins
BSTAR
0.0050528
Loading maneuver chart data...
Computing Atmospheric mass density...
Loading historical data...
Loading historical data...
Loading historical data...
Loading historical data...
Loading historical data...
Loading historical data...
Loading historical data...

Documentation

Showing up to 5 results
|